Location: Franzen
(48.6167°N, 15.3833°E)
Time: 05:35:33
(UTC+00:00)

Altair - Pass Details

Date: 12 August 2021
Orbit: 1501 x 1682 km, 47.2° (Epoch: 21 September)

Event Time Altitude Azimuth Distance (km) Brightness Sun altitude
Rises 20:55:15 0° 217° (SW) 4,848 9.9 -20.6°
Reaches altitude 10° 20:58:36 10° 211° (SSW) 3,840 9.3 -20.9°
Maximum altitude 21:07:33 43° 144° (SE) 2,097 7.7 -21.7°
Drops below altitude 10° 21:16:13 10° 77° (ENE) 3,720 9.4 -22.4°
Sets 21:19:24 0° 71° (ENE) 4,685 10.0 -22.6°
